Location: Lafig�re
(44.4503°N, 4.0357°E)
Time: 00:50:14
(UTC+00:00)

BlueWalker 3 - Pass Details

Date: 12 December 2022
Orbit: 499 x 517 km, 53.2° (Epoch: 05 February)

Event Time Altitude Azimuth Distance (km) Brightness Sun altitude
Rises 17:53:45 0° 296° (WNW) 2,624 6.4 -18.7°
Reaches altitude 10° 17:56:12 10° 284° (WNW) 1,730 5.6 -19.1°
Maximum altitude 17:59:29 26° 227° (SW) 1,034 4.1 -19.7°
Drops below altitude 10° 18:02:43 10° 170° (S) 1,710 4.7 -20.3°
Enters shadow 18:04:34 - 159° (SSE) 2,376 5.3 -20.6°
